Location: Altmatt
(47.1333°N, 8.7000°E)
Time: 01:49:51
(UTC+00:00)

Cosmos 1862 - Pass Details

Date: 13 July 2020
Orbit: 539 x 555 km, 82.5° (Epoch: 04 August)

Event Time Altitude Azimuth Distance (km) Brightness Sun altitude
Exits shadow 23:53:19 31° 261° (W) 975 4.4 -21.0°
Maximum altitude 23:54:05 34° 286° (WNW) 918 4.5 -21.0°
Drops below altitude 10° 23:57:46 10° 352° (N) 1,829 7.1 -21.0°
Sets 00:00:06 0° 2° (N) 2,730 8.4 -20.9°
